SCD 1 1 22490U 93009B 26095.63136901 .00000637 00000+0 12328-3 0 9993 2 22490 24.9698 295.5566 0042108 90.1107 316.7851 14.46087022750601 TECHSAT 1B (GO-32) 1 25397U 98043D 26095.57325313 .00000112 00000+0 68687-4 0 9993 2 25397 99.0053 86.5098 0002301 76.1795 283.9639 14.24413840440998 SCD 2 1 25504U 98060A 26095.25804715 .00000520 00000+0 94261-4 0 9995 2 25504 24.9941 161.9025 0017019 72.6093 338.5263 14.45497754449766 DLR-TUBSAT 1 25757U 99029B 26095.54474006 .00000180 00000+0 56040-4 0 9994 2 25757 98.6687 88.6662 0013625 207.0609 152.9877 14.52407962422703 TERRA 1 25994U 99068A 26095.58046760 .00000654 00000+0 14217-3 0 9991 2 25994 97.9537 147.9803 0003670 96.4510 63.3971 14.61045735399000 MAROC-TUBSAT 1 27004U 01056D 26095.48678962 -.00000028 00000+0 21614-4 0 9995 2 27004 99.8043 270.9825 0019426 331.1309 42.3616 13.70259394216232 AQUA 1 27424U 02022A 26095.58140056 .00001472 00000+0 30312-3 0 9991 2 27424 98.4221 63.4457 0001437 114.6970 307.0738 14.62043668272660 IRS-P6 (RESOURCESAT-1) 1 28051U 03046A 26095.64089323 .00000549 00000+0 19782-3 0 9993 2 28051 98.1987 135.6813 0063669 198.8908 274.2326 14.36135366170114 SHIYAN-1 (SY-1) 1 28220U 04012A 26095.46009690 .00018563 00000+0 60371-3 0 9999 2 28220 97.8722 168.9050 0004492 273.3519 86.7207 15.31939349199959 AURA 1 28376U 04026A 26095.54052407 .00001498 00000+0 31378-3 0 9993 2 28376 98.3356 51.4263 0001430 94.0754 266.0609 14.61215373155609 IRS-P5 (CARTOSAT-1) 1 28649U 05017A 26095.59641069 .00002012 00000+0 20957-3 0 9994 2 28649 97.5371 121.9407 0000873 55.1091 305.0210 14.90864888133000 SINAH 1 1 28893U 05043D 26095.61331913 .00000707 00000+0 14384-3 0 9997 2 28893 98.2737 229.5555 0015340 140.1628 220.0703 14.64106162 89907 RESURS-DK 1 1 29228U 06021A 26095.57859491 .00003191 00000+0 18681-3 0 9992 2 29228 69.9330 167.4651 0002073 31.6646 328.4645 15.12917726 91590 ARIRANG-2 (KOMPSAT-2) 1 29268U 06031A 26095.60534161 .00000549 00000+0 11174-3 0 9999 2 29268 97.8305 283.5604 0013327 307.7712 125.1393 14.64614511 50857 LAPAN-TUBSAT 1 29709U 07001A 26095.59485465 .00000748 00000+0 92393-4 0 9991 2 29709 98.1344 93.1893 0013485 64.4860 295.7747 14.85873191 40372 HAIYANG-1B 1 31113U 07010A 26095.56730233 .00000164 00000+0 78044-4 0 9995 2 31113 98.3462 80.2453 0014611 59.2355 301.0265 14.31008684990243 COSMO-SKYMED 1 1 31598U 07023A 26095.60817036 .00005210 00000+0 46081-3 0 9990 2 31598 97.8875 286.8601 0001665 98.8702 261.2708 14.96749651 18934 TERRASAR-X 1 31698U 07026A 26095.47313887 .00001749 00000+0 86458-4 0 9990 2 31698 97.4469 104.2157 0001879 93.4012 266.7438 15.19154565 42185 WORLDVIEW-1 (WV-1) 1 32060U 07041A 26095.29437933 .00009695 00000+0 40202-3 0 9994 2 32060 97.3853 216.0687 0001480 337.8597 22.2576 15.24082020 31779 YAOGAN-3 1 32289U 07055A 26095.63056484 .00004051 00000+0 42045-3 0 9996 2 32289 97.8224 126.2150 0001397 85.2622 274.8755 14.90513014995054 COSMO-SKYMED 2 1 32376U 07059A 26095.58721706 .00000722 00000+0 97206-4 0 9998 2 32376 97.8880 280.2354 0001296 89.6166 270.5195 14.82161642991240 RADARSAT-2 1 32382U 07061A 26095.61795601 .00000254 00000+0 11544-3 0 9997 2 32382 98.5807 103.5800 0001241 82.7496 277.3828 14.29982395955589 CARTOSAT-2A 1 32783U 08021A 26095.59776142 .00001244 00000+0 17437-3 0 9992 2 32783 97.7714 146.7597 0011697 355.2149 4.8949 14.79153372968078 HUANJING 1A (HJ-1A) 1 33320U 08041A 26095.61021686 .00001118 00000+0 14068-3 0 9998 2 33320 97.6662 84.2785 0019741 21.6152 338.5891 14.83819293947647 HUANJING 1B (HJ-1B) 1 33321U 08041B 26095.61495456 .00000560 00000+0 74081-4 0 9991 2 33321 97.6507 87.6694 0037987 62.7186 297.7889 14.83181568947658 GEOEYE 1 1 33331U 08042A 26095.53348191 .00000800 00000+0 15933-3 0 9994 2 33331 98.1267 170.3779 0002923 297.7211 62.3695 14.64658385939515 THEOS 1 33396U 08049A 26095.61047396 .00000111 00000+0 71757-4 0 9996 2 33396 98.5642 155.2272 0001189 95.5289 264.6024 14.20123024907662 COSMO-SKYMED 3 1 33412U 08054A 26095.55599632 .00003925 00000+0 26943-3 0 9991 2 33412 97.8365 312.9075 0016451 149.1736 211.0460 15.06493248946003 YAOGAN-4 1 33446U 08061A 26095.57348255 .00001907 00000+0 24055-3 0 9991 2 33446 97.9271 29.6439 0013216 311.5883 48.4197 14.83064310934900 GOSAT (IBUKI) 1 33492U 09002A 26095.59262810 .00001141 00000+0 20956-3 0 9998 2 33492 98.0794 207.6176 0001015 96.8906 263.2415 14.67549618920818 DEIMOS-1 1 35681U 09041A 26095.60956824 .00001290 00000+0 19808-3 0 9999 2 35681 97.7307 256.0190 0002699 78.1976 281.9537 14.75161923896181 DUBAISAT-1 1 35682U 09041B 26095.36989051 .00001755 00000+0 26840-3 0 9991 2 35682 97.9927 229.4782 0009338 309.0908 50.9470 14.74985934894364 OCEANSAT-2 1 35931U 09051A 26095.56957803 .00000004 00000+0 28544-4 0 9991 2 35931 98.2314 89.6845 0017418 79.4051 280.9077 13.99655109869179 WORLDVIEW-2 (WV-2) 1 35946U 09055A 26095.51716151 .00000243 00000+0 94817-4 0 9996 2 35946 98.4651 169.9943 0005534 81.4169 278.7645 14.37922672865202 SMOS 1 36036U 09059A 26095.49647119 .00000395 00000+0 13985-3 0 9999 2 36036 98.4435 283.8894 0000980 98.4115 261.7185 14.39780718862992 YAOGAN-7 1 36110U 09069A 26095.58062561 .00000910 00000+0 13311-3 0 9991 2 36110 98.0165 341.8624 0023240 273.9092 85.9462 14.77938000878908 TANDEM-X 1 36605U 10030A 26095.47313996 .00001772 00000+0 87563-4 0 9997 2 36605 97.4457 104.2157 0001895 78.8360 281.3088 15.19154704875606 CARTOSAT-2B 1 36795U 10035A 26095.59373611 .00001467 00000+0 20740-3 0 9999 2 36795 98.0032 146.5780 0012597 66.9842 293.2697 14.78588176849121 YAOGAN-10 1 36834U 10038A 26095.60807684 .00002184 00000+0 26155-3 0 9993 2 36834 97.9044 119.5806 0001487 82.0343 70.8411 14.85130892846436 COSMO-SKYMED 4 1 37216U 10060A 26095.59988637 .00001058 00000+0 13936-3 0 9991 2 37216 97.8875 280.2485 0001468 82.8400 277.2980 14.82162089833814 RESOURCESAT-2 1 37387U 11015A 26095.59500509 -.00000410 00000+0 -16640-3 0 9997 2 37387 98.7701 163.5215 0012406 107.4071 252.8464 14.21642922775865 HAIYANG-2A 1 37781U 11043A 26095.58786942 -.00000075 00000+0 -31517-4 0 9990 2 37781 99.3415 99.7385 0003835 227.0054 133.0775 13.76912100736674 RASAT 1 37791U 11044D 26095.60220622 .00001513 00000+0 27105-3 0 9996 2 37791 98.0550 188.1216 0021861 64.2558 47.4330 14.68101306782537 SRMSAT 1 37841U 11058D 26095.49484994 .00000471 00000+0 11205-3 0 9994 2 37841 19.9707 139.4576 0011902 123.4189 11.6801 14.11557864747539 PLEIADES 1A 1 38012U 11076F 26095.55445438 .00001064 00000+0 23870-3 0 9992 2 38012 98.2004 171.6230 0001386 72.8796 38.6261 14.58566835761401 ZIYUAN 1-02C (ZY 1-02C) 1 38038U 11079A 26095.59559440 .00001144 00000+0 39096-3 0 9992 2 38038 98.4122 164.4074 0006921 155.2069 341.2449 14.38156203748775 ARIRANG-3 (KOMPSAT-3) 1 38338U 12025B 26095.56307213 .00000825 00000+0 17324-3 0 9998 2 38338 98.1108 54.3082 0005247 357.7343 2.3834 14.62141051740732 EXACTVIEW-1 (ADS-1B) 1 38709U 12039C 26095.56706134 .00000212 00000+0 11044-3 0 9993 2 38709 98.9669 211.3544 0011191 26.2802 333.8942 14.24962672712363 SPOT 6 1 38755U 12047A 26095.61685593 .00000770 00000+0 17553-3 0 9994 2 38755 98.2169 163.7574 0001466 82.8892 277.2474 14.58566358722478 PLEIADES 1B 1 39019U 12068A 26095.63629684 .00000806 00000+0 18327-3 0 9992 2 39019 98.1974 171.6773 0001295 76.6335 283.5009 14.58553256710279 GOKTURK 2 1 39030U 12073A 26095.58688714 .00001100 00000+0 16869-3 0 9991 2 39030 97.6864 296.6386 0001164 110.9150 249.2185 14.75474114713804 LANDSAT 8 1 39084U 13008A 26095.50998818 .00000524 00000+0 12621-3 0 9991 2 39084 98.1873 166.7890 0001214 91.0944 269.0393 14.57111500687316 SARAL 1 39086U 13009A 26095.55620408 .00000159 00000+0 74343-4 0 9990 2 39086 98.5564 283.0377 0002752 121.0976 239.0478 14.32838080685208 GAOFEN-1 1 39150U 13018A 26095.61973266 .00001329 00000+0 19746-3 0 9997 2 39150 97.9132 169.1487 0018151 136.4658 223.7989 14.76532439697530 VNREDSAT 1 1 39160U 13021B 26095.61633303 .00001482 00000+0 28547-3 0 9996 2 39160 97.9154 151.7893 0001354 80.4595 279.6761 14.64934278689665 ARIRANG-5 (KOMPSAT-5) 1 39227U 13042A 26095.60547881 .00002480 00000+0 18139-3 0 9992 2 39227 97.6196 283.3172 0004296 41.7731 318.3823 15.04515524692943 SKYSAT-A 1 39418U 13066C 26095.56259839 .00004832 00000+0 27929-3 0 9998 2 39418 97.3890 147.2664 0021125 201.6188 158.4154 15.12561739677503 DUBAISAT-2 1 39419U 13066D 26095.57024183 .00005228 00000+0 32830-3 0 9999 2 39419 97.4556 87.6565 0009483 286.9482 73.0708 15.09659035675437 GPM-CORE 1 39574U 14009C 26095.57527122 .00015646 00000+0 34105-3 0 9992 2 39574 64.9731 191.4075 0012951 255.2468 104.7237 15.44348134686592 SENTINEL-1A 1 39634U 14016A 26095.61323525 .00000066 00000+0 23620-4 0 9994 2 39634 98.1808 104.1974 0001367 82.6547 277.4808 14.59197664639439 KAZEOSAT 1 1 39731U 14024A 26095.58339218 .00000677 00000+0 21907-3 0 9996 2 39731 98.3240 169.8251 0001144 100.7029 259.4290 14.42052495628094 ALOS-2 1 39766U 14029A 26095.56905385 .00000823 00000+0 11707-3 0 9991 2 39766 97.9196 193.7752 0001839 96.1579 263.9842 14.79454989640842 KAZEOSAT 2 1 40010U 14033A 26095.61344487 .00000889 00000+0 10909-3 0 9991 2 40010 97.5462 299.0381 0008064 188.9951 171.1121 14.85385538638181 HODOYOSHI-4 1 40011U 14033B 26095.61214350 .00002758 00000+0 30502-3 0 9995 2 40011 97.5454 283.9423 0023561 182.4673 177.6432 14.87952072638014 DEIMOS-2 1 40013U 14033D 26095.62976470 .00000068 00000+0 11549-4 0 9999 2 40013 97.5930 332.6366 0001272 111.2447 248.8909 14.93524771626898 HODOYOSHI-3 1 40015U 14033F 26095.42792260 .00002023 00000+0 23999-3 0 9996 2 40015 97.6343 261.4326 0031829 232.6159 127.2158 14.85223920636826 SPOT 7 1 40053U 14034A 26095.58158623 .00001223 00000+0 25916-3 0 9997 2 40053 98.0689 159.9260 0001624 89.2884 270.8503 14.60897309626532 SKYSAT-B 1 40072U 14037D 26095.42982214 .00002577 00000+0 28857-3 0 9995 2 40072 98.3775 50.2889 0006295 142.7628 217.4024 14.87835582635148 WORLDVIEW-3 (WV-3) 1 40115U 14048A 26095.46094223 .00001503 00000+0 18293-3 0 9994 2 40115 97.8595 171.2948 0001905 142.6623 217.4724 14.84901399631114 GAOFEN-2 1 40118U 14049A 26095.60674616 .00001840 00000+0 24532-3 0 9991 2 40118 98.0169 159.8663 0008735 105.6025 254.6152 14.80818721628493 YAOGAN-21 1 40143U 14053A 26095.63125516 .00011645 00000+0 46332-3 0 9993 2 40143 97.1558 139.0058 0008084 2.9655 357.1630 15.25385729643894 YAOGAN-22 1 40275U 14063A 26095.40480551 -.00000040 00000+0 19021-4 0 9992 2 40275 100.7600 245.4997 0006147 359.3661 0.7442 13.15528526550246 ASNARO 1 40298U 14070A 26095.59145723 .00016333 00000+0 76153-3 0 9993 2 40298 97.3478 173.6499 0006993 81.3056 278.8971 15.19926680632989 YAOGAN-24 1 40310U 14072A 26095.62153691 .00002198 00000+0 32534-3 0 9996 2 40310 98.1365 232.3951 0014900 132.4118 227.8355 14.76129488613014 CBERS 4 1 40336U 14079A 26095.61748764 .00000519 00000+0 19496-3 0 9998 2 40336 98.3422 154.7609 0000387 133.4381 226.6838 14.35576966593542 YAOGAN-26 1 40362U 14088A 26095.57138634 .00012473 00000+0 27029-3 0 9994 2 40362 97.0667 97.6319 0002951 348.1701 11.9478 15.44551255626481 SMAP 1 40376U 15003A 26095.60162403 .00000736 00000+0 15142-3 0 9994 2 40376 98.1307 103.7154 0001926 93.7240 266.4183 14.63375104597009 KOMPSAT-3A 1 40536U 15014A 26095.58938255 .00036078 00000+0 58544-3 0 9998 2 40536 97.6894 81.8495 0063508 82.4438 278.4021 15.50327477610551 SENTINEL-2A 1 40697U 15028A 26095.62732719 .00000371 00000+0 15807-3 0 9995 2 40697 98.5643 171.5243 0001338 91.8096 268.3240 14.30818385563352 GAOFEN-8 1 40701U 15030A 26095.59711897 .00024507 00000+0 54709-3 0 9995 2 40701 97.6932 284.7431 0010406 96.9675 263.2756 15.43486510600242 CARBONITE 1 (CBNT-1) 1 40718U 15032D 26095.60534488 .00001249 00000+0 15829-3 0 9994 2 40718 97.6485 276.7301 0014767 167.3780 192.7807 14.83357142578589 YAOGAN-27 1 40878U 15040A 26095.58068890 -.00000365 00000+0 -84941-3 0 9997 2 40878 100.1129 85.1257 0008614 26.3588 333.7963 13.16064909508110 GAOFEN-9 01 1 40894U 15047A 26095.58824838 .00001623 00000+0 20583-3 0 9992 2 40894 97.6360 134.5577 0027857 21.4936 338.7441 14.82754449569439 YAOGAN-28 1 41026U 15064A 26095.64740554 .00009923 00000+0 38196-3 0 9998 2 41026 97.2960 235.4853 0012293 89.0713 271.1934 15.26500251579615 YAOGAN-29 1 41038U 15069A 26095.58065314 .00001411 00000+0 18022-3 0 9993 2 41038 98.0099 124.0777 0000145 156.0459 204.0761 14.83030195559868 KENT RIDGE 1 1 41167U 15077B 26095.59441238 .00005624 00000+0 20222-3 0 9994 2 41167 14.9796 85.6612 0008465 294.3730 65.5708 15.22689054570012 GAOFEN-4 1 41194U 15083A 26095.62327376 -.00000333 00000+0 00000+0 0 9992 2 41194 0.3948 82.9517 0006202 84.7750 356.2661 1.00270902 37806 JASON-3 1 41240U 16002A 26095.61428947 -.00000054 00000+0 32074-4 0 9992 2 41240 66.0400 278.4132 0007669 276.0766 83.9379 12.87627888477901 SENTINEL-3A 1 41335U 16011A 26095.56199185 .00000230 00000+0 11316-3 0 9990 2 41335 98.6297 163.9722 0001094 89.4833 270.6473 14.26733798527708 ZIYUAN 3-02 (ZY 3-02) 1 41556U 16033A 26095.57631481 .00008213 00000+0 36850-3 0 9999 2 41556 97.3858 172.7320 0013653 185.0573 175.0528 15.21365224546949 CARTOSAT-2C 1 41599U 16040A 26095.74184534 .00005775 00000+0 27710-3 0 9990 2 41599 97.4548 156.6878 0009811 33.5561 326.6293 15.19224778542716 SKYSAT-C1 1 41601U 16040C 26095.36689778 .00012372 00000+0 36517-3 0 9998 2 41601 96.9644 131.0677 0000602 326.5790 33.5417 15.35104314546697 LAPAN-A3 1 41603U 16040E 26095.60008522 .00004896 00000+0 15766-3 0 9994 2 41603 97.1492 94.1607 0008360 277.4137 82.6155 15.32628084543696 GAOFEN-3 1 41727U 16049A 26095.58408446 .00000059 00000+0 31051-4 0 9999 2 41727 98.4041 104.4582 0001580 69.7930 290.3430 14.42223177508187 SKYSAT-C4 1 41771U 16058B 26095.51913017 .00018723 00000+0 37982-3 0 9991 2 41771 96.9246 120.4257 0003020 124.5066 235.6470 15.46402302534239 SKYSAT-C5 1 41772U 16058C 26095.56792748 .00010065 00000+0 30564-3 0 9993 2 41772 97.0554 139.4609 0002306 169.5194 190.6098 15.34256221532612 SKYSAT-C2 1 41773U 16058D 26095.60785943 .00015130 00000+0 37493-3 0 9994 2 41773 97.0240 120.4966 0001990 351.8881 8.2333 15.40481449533872 SKYSAT-C3 1 41774U 16058E 26095.56224039 .00026059 00000+0 47164-3 0 9992 2 41774 96.9122 129.3098 0002431 110.5152 249.6362 15.49636783534850 ALSAT-1B 1 41785U 16059C 26095.58600929 .00000726 00000+0 12245-3 0 9998 2 41785 97.7786 107.4771 0010780 97.7900 262.4532 14.72219038509898 PATHFINDER 1 1 41787U 16059E 26095.59439674 .00001167 00000+0 21248-3 0 9991 2 41787 97.8184 98.1491 0029955 78.3960 282.0606 14.67570995509068 SCATSAT 1 1 41790U 16059H 26095.43947508 .00002355 00000+0 31526-3 0 9998 2 41790 98.1246 158.4447 0056023 121.9932 238.6741 14.79362667 90831 GOKTURK 1A 1 41875U 16073A 26095.60105098 .00000612 00000+0 12921-3 0 9999 2 41875 98.1329 351.3834 0001365 82.7445 277.3912 14.62779729498210 RESOURCESAT-2A 1 41877U 16074A 26095.57690019 .00000363 00000+0 18569-3 0 9997 2 41877 98.7560 169.6640 0001084 308.6999 51.4081 14.21612649483980 CARTOSAT-2D 1 41948U 17008A 26095.70911462 -.00000072 00000+0 -21364-6 0 9996 2 41948 97.4180 156.3396 0005701 128.7303 231.4442 15.19235558506574 SENTINEL-2B 1 42063U 17013A 26095.62008439 .00000494 00000+0 20515-3 0 9993 2 42063 98.5668 171.4277 0001207 93.3735 266.7586 14.30819338474261 CARTOSAT-2E 1 42767U 17036C 26095.72599731 -.00000017 00000+0 23946-5 0 9995 2 42767 97.4348 156.6954 0003735 180.5647 179.5584 15.19345018487148 FORMOSAT-5 1 42920U 17049A 26095.57071065 .00000330 00000+0 95059-4 0 9998 2 42920 98.2275 172.4896 0010599 313.5351 46.4963 14.50711046456145 SENTINEL-5P 1 42969U 17064A 26095.60097407 .00000119 00000+0 77710-4 0 9999 2 42969 98.7920 38.2551 0001232 88.5775 271.5542 14.19506224439263 SKYSAT-C11 1 42987U 17068A 26095.38748983 .00036960 00000+0 56691-3 0 9997 2 42987 97.4258 241.3020 0000549 166.1110 194.0158 15.54222813471927 SKYSAT-C10 1 42988U 17068B 26095.62450937 .00013222 00000+0 41224-3 0 9996 2 42988 97.4392 231.8836 0001033 110.0175 250.1178 15.33368234471239 SKYSAT-C9 1 42989U 17068C 26095.62543128 .00017309 00000+0 43761-3 0 9990 2 42989 97.4316 232.1539 0009266 45.3142 314.8858 15.39810989471586 SKYSAT-C8 1 42990U 17068D 26095.63683429 .00014945 00000+0 43474-3 0 9996 2 42990 97.4410 231.4290 0001044 94.5672 265.5691 15.35535036471174 SKYSAT-C7 1 42991U 17068E 26095.62776308 .00014605 00000+0 42540-3 0 9991 2 42991 97.4421 232.4045 0006161 19.3464 340.8012 15.35483695471239 SKYSAT-C6 1 42992U 17068F 26095.33743785 .00013863 00000+0 43458-3 0 9997 2 42992 97.4455 232.3168 0003464 62.5831 297.5763 15.33178084471156 CARTOSAT-2F 1 43111U 18004A 26095.62630763 .00008440 00000+0 40346-3 0 9993 2 43111 97.4102 156.2916 0001974 127.7777 232.3637 15.19250495456310 GAOFEN-1 02 1 43259U 18031A 26095.58043405 -.00000010 00000+0 60136-5 0 9999 2 43259 98.0589 158.2870 0002051 219.4494 140.6567 14.76455314431980 GAOFEN-1 03 1 43260U 18031B 26095.62634392 .00001248 00000+0 18671-3 0 9995 2 43260 98.0580 158.1990 0001585 326.4874 33.6235 14.76475664431980 GAOFEN-1 04 1 43262U 18031D 26095.60207985 .00002071 00000+0 30510-3 0 9990 2 43262 98.0589 158.3566 0001223 56.7974 303.3352 14.76442457431975 SENTINEL-3B 1 43437U 18039A 26095.60525265 .00000192 00000+0 97568-4 0 9995 2 43437 98.6295 164.1628 0001549 111.6899 248.4447 14.26736652413771 GAOFEN-5 01 1 43461U 18043A 26095.51347712 .00000639 00000+0 14173-3 0 9992 2 43461 98.4514 65.6022 0001094 349.7260 10.3917 14.60553774421085 GAOFEN-6 1 43484U 18048A 26095.63043057 .00001832 00000+0 26870-3 0 9993 2 43484 97.7818 160.9529 0013429 56.0780 304.1705 14.76650468422681 GAOFEN-11 01 1 43585U 18063A 26095.61325516 .00023567 00000+0 37563-3 0 9993 2 43585 97.1356 162.7871 0002841 223.0376 137.0656 15.53239369429074 ICESAT-2 1 43613U 18070A 26095.53877043 .00004242 00000+0 15405-3 0 9991 2 43613 92.0000 271.3927 0004176 71.9971 288.1734 15.28261453421369 HYSIS 1 43719U 18096A 26095.60126521 .00002261 00000+0 31585-3 0 9998 2 43719 97.9890 162.8998 0001498 64.3299 295.8067 14.78633098396695 KAZSTSAT 1 43783U 18099AB 26095.57527947 .00002534 00000+0 20982-3 0 9997 2 43783 97.4364 130.7687 0003121 280.1919 79.8953 14.99714125400423 SAUDISAT 5A 1 43831U 18102A 26095.58926153 .00008078 00000+0 30408-3 0 9992 2 43831 97.3131 158.5841 0010640 39.9924 320.2097 15.27322942404596 SAUDISAT 5B 1 43833U 18102C 26095.62124248 .00006917 00000+0 25841-3 0 9999 2 43833 97.3230 161.5548 0011400 41.4473 318.7629 15.27616329404710 GAOFEN-10R 1 44622U 19066A 26095.62036619 .00002269 00000+0 28658-3 0 9995 2 44622 98.0442 48.7066 0006227 26.6406 333.5126 14.82896152351625 CARTOSAT-3 1 44804U 19081A 26095.57552848 .00009078 00000+0 43217-3 0 9998 2 44804 97.4367 158.5837 0012889 51.5162 308.7227 15.19302840352443 GAOFEN-12 01 1 44819U 19082A 26095.62397900 .00000669 00000+0 94207-4 0 9990 2 44819 97.8132 103.9149 0000568 86.3325 273.7952 14.80399099343356 CSG-1 1 44873U 19092A 26095.61255575 .00000797 00000+0 10668-3 0 9991 2 44873 97.8883 280.2629 0001281 83.3328 276.8031 14.82152507340727 NEMO-HD 1 46277U 20061F 26095.60121811 .00013057 00000+0 29630-3 0 9995 2 46277 97.1984 158.3404 0000946 75.2176 284.9177 15.43176117310781 SENTINEL-6A 1 46984U 20086A 26095.55296974 -.00000054 00000+0 29569-4 0 9990 2 46984 66.0400 285.9162 0007727 270.6477 89.3653 12.80930694251024 GAOFEN-12 02 1 48079U 21026A 26095.62734622 .00000661 00000+0 93840-4 0 9993 2 48079 97.9933 94.1103 0006223 105.0847 255.1054 14.80237165271027 PLEIADES NEO 3 1 48268U 21034A 26094.84535568 .00000462 00000+0 65281-4 0 9990 2 48268 97.8934 170.6645 0001316 89.7304 270.4059 14.81675433266790 PLEIADES NEO 4 1 49070U 21073E 26092.71807238 .00000257 00000+0 39217-4 0 9997 2 49070 97.8936 168.5642 0001361 93.2976 266.8392 14.81674962250194 LANDSAT 9 1 49260U 21088A 26095.47583249 .00000569 00000+0 13620-3 0 9998 2 49260 98.1893 166.8231 0001190 98.0452 262.0882 14.57126067240415 CSG-2 1 51444U 22008A 26095.57878378 .00000141 00000+0 24262-4 0 9990 2 51444 97.8875 280.2265 0001380 83.0490 277.0880 14.82149317225837 GAOFEN-12 03 1 52912U 22069A 26095.64277498 .00001583 00000+0 21645-3 0 9994 2 52912 97.8367 345.3136 0002115 60.5471 299.5952 14.79918468203887 SWOT 1 54754U 22173A 26095.60510492 .00000043 00000+0 30825-4 0 9997 2 54754 77.6086 133.2928 0000691 203.0661 157.0460 14.00168299168999 GAOFEN-12 04 1 57654U 23123A 26095.60082706 .00001879 00000+0 25476-3 0 9990 2 57654 97.9129 14.6676 0001304 78.2380 281.8978 14.80087413141894 PARS 1 1 59065U 24039Q 26095.57943029 .00015213 00000+0 33243-3 0 9993 2 59065 97.4793 74.3183 0010485 29.7241 330.4601 15.44219968117437 RESURS-P 4 1 59371U 24061A 26095.57251552 .00005109 00000+0 16181-3 0 9996 2 59371 97.2698 44.7646 0000831 92.6918 267.4420 15.33175467112647 LEGION 1 1 59625U 24081A 26095.52316419 .00005580 00000+0 28866-3 0 9995 2 59625 97.5035 174.1448 0008461 271.6087 88.4177 15.16621531106527 LEGION 2 1 59626U 24081B 26095.55984956 .00006364 00000+0 32649-3 0 9991 2 59626 97.5035 174.2632 0009560 239.5153 120.5136 15.16848302106533 ALOS-4 (DAICHI-4) 1 60182U 24123A 26092.81550207 .00002561 00000+0 34965-3 0 9999 2 60182 97.9197 191.0646 0001614 100.5955 259.5439 14.79483193 94734 LEGION 3 1 60452U 24146A 26095.36988268 .00007006 00000+0 37742-3 0 9994 2 60452 45.0015 60.8927 0007645 116.1036 244.0630 15.15449733 90972 LEGION 4 1 60453U 24146B 26095.56748138 .00005716 00000+0 30990-3 0 9991 2 60453 45.0004 151.7065 0015685 266.3077 93.6007 15.15449559 89857 SENTINEL-2C 1 60989U 24157A 26095.16554584 .00000189 00000+0 88606-4 0 9990 2 60989 98.5649 170.9969 0001239 114.7083 245.4229 14.30824598 82546 IONOSFERA-M 1 1 61735U 24199A 26095.61708953 .00000087 00000+0 58489-4 0 9990 2 61735 98.7277 329.5172 0001449 39.6013 320.5270 14.22741041117388 IONOSFERA-M 2 1 61736U 24199B 26095.58121443 .00000091 00000+0 60291-4 0 9999 2 61736 98.7276 329.3930 0001412 122.6755 237.4559 14.22743884120505 BIOMASS 1 63772U 25090A 26095.48481101 .00002210 00000+0 39818-3 0 9996 2 63772 98.0750 283.8533 0001235 100.0999 260.0345 14.67533127 50023 GOSAT-GW (IBUKI GW) 1 64694U 25141A 26095.57693921 .00001783 00000+0 32272-3 0 9993 2 64694 98.0535 34.0911 0001426 84.1313 276.0055 14.67551004 41195 IONOSFERA-M 3 1 64876U 25155A 26095.60431509 .00000103 00000+0 66825-4 0 9993 2 64876 98.5969 59.3629 0002461 76.7622 283.3830 14.21473420 36099 IONOSFERA-M 4 1 64877U 25155B 26095.56886970 .00000110 00000+0 69913-4 0 9994 2 64877 98.5964 59.2465 0001817 74.8082 285.3296 14.21475320 36083 MICROCARB 1 64899U 25156A 26095.29390509 .00000974 00000+0 16183-3 0 9995 2 64899 97.9852 173.7300 0017299 141.9143 218.3291 14.72246923 37242 CO3D 3 1 64900U 25156B 26090.51674821 .00000117 00000+0 85126-5 0 9994 2 64900 97.4337 170.3268 0002068 103.1490 256.9977 15.20193533 37732 CO3D 4 1 64901U 25156C 26094.86120377 .00002274 00000+0 10814-3 0 9995 2 64901 97.4323 174.6072 0001402 137.4890 222.6454 15.20205421 38396 CO3D 2 1 64902U 25156D 26093.18234204 .00011547 00000+0 51813-3 0 9992 2 64902 97.6520 173.3642 0063279 311.0942 48.4837 15.19537740 38136 CO3D 1 1 64903U 25156E 26093.24825721 .00029003 00000+0 13154-2 0 9991 2 64903 97.4393 173.0315 0023021 357.4030 2.7082 15.20542090 38142 SENTINEL-6B 1 66514U 25264A 26095.55331166 -.00000056 00000+0 23930-4 0 9995 2 66514 66.0401 286.0417 0007893 270.3195 89.6916 12.80930489 17868 CSG-3 1 67304U 26001A 26095.62520257 .00000583 00000+0 79754-4 0 9991 2 67304 97.8884 280.2750 0001375 86.9316 273.2055 14.82158943 13710